RH
63 64 65 67 69 70 76 78 80 82 81 80 79 80 85 85 87 90 92 86 84 87 83 76 73 74 71 66 64 67 68 62 59 58 57 54 52 53 55 54 53 52 51 50 50 48 47 45 44 43 40 38 41 45 48 48 48 47 47 46 43 42 40 38 37 36 35 34 35 35 35 38 40 41 44 47 46 43 46 47 45 44 45 46 50 52 48 46 47 48 54 56 57 57 54 56 59
65 66 69 72 72 74 79 79 78 80 80 79 79 81 86 88 89 91 90 83 84 86 81 76 74 74 70 66 67 66 67 67 62 59 58 55 53 52 53 52 49 49 48 47 48 46 44 43 42 40 39 38 41 44 45 45 44 44 44 43 40 40 39 38 38 39 40 40 41 40 40 41 40 42 48 50 47 49 52 53 52 52 54 57 58 55 53 51 53 58 59 56 58 60 57 59 62
66 68 71 75 76 77 79 78 77 79 79 77 77 82 88 92 92 90 87 83 86 85 80 78 76 75 71 67 70 67 66 67 61 58 59 56 54 51 51 50 47 46 45 46 46 44 42 42 41 40 40 41 42 43 43 43 42 42 41 40 39 40 41 40 41 43 44 46 45 43 43 41 40 47 55 54 52 54 56 57 58 58 59 60 59 57 56 54 55 58 58 56 60 62 60 63 63
70 73 75 77 77 77 75 74 73 75 77 76 77 83 89 92 91 89 87 86 87 84 80 78 76 76 72 69 71 70 68 65 59 58 57 54 53 51 50 48 45 44 43 44 45 43 42 42 42 42 42 43 44 44 43 41 40 41 41 41 41 43 42 41 43 45 47 48 47 46 46 43 44 53 59 57 54 56 58 61 63 63 64 62 60 60 60 59 57 56 56 58 62 64 64 64 63
76 76 77 76 75 73 71 72 74 75 75 76 79 84 89 90 89 88 86 86 85 82 80 77 74 74 73 73 72 69 68 64 58 57 55 51 50 50 50 47 44 43 44 45 45 43 43 43 44 43 42 44 44 43 42 41 41 42 42 43 44 46 45 45 48 49 50 49 49 50 48 46 49 56 60 58 56 59 60 63 65 65 64 61 61 62 63 60 58 57 58 63 66 68 67 66 65
76 75 75 75 74 73 73 74 76 76 74 77 81 84 90 88 86 87 87 86 85 83 80 76 74 74 75 75 72 70 68 61 57 55 53 49 47 48 49 47 45 44 45 47 46 45 44 44 45 44 42 43 43 43 42 41 42 43 43 44 45 48 49 51 53 53 53 52 51 51 48 48 53 58 61 58 58 62 61 62 64 62 59 58 58 59 61 60 58 58 61 67 67 67 69 67 67
73 73 75 73 73 75 76 77 77 78 78 80 83 86 90 88 85 86 85 84 85 83 80 78 74 74 74 73 72 70 67 59 55 52 48 47 46 46 48 48 46 45 46 48 47 45 44 43 44 43 42 42 42 42 41 42 43 42 41 43 46 51 53 54 55 55 56 56 53 51 49 50 55 60 61 60 59 61 61 62 63 60 59 60 58 56 58 59 58 59 64 69 67 68 71 69 67
74 74 75 73 72 77 78 79 80 80 81 81 83 87 88 86 85 84 81 81 83 83 82 80 73 71 73 71 69 68 65 58 53 48 44 46 45 44 46 47 46 47 46 46 46 46 44 43 43 43 42 42 42 42 42 44 44 41 41 45 51 55 55 55 57 58 59 59 56 51 51 52 54 58 60 61 62 62 63 64 62 60 61 62 57 54 58 59 59 63 67 70 69 68 71 70 67
75 75 74 72 72 77 79 81 82 79 80 81 84 89 87 85 85 81 79 80 80 81 80 78 70 68 72 71 68 67 63 56 50 46 43 45 45 43 44 45 46 47 45 44 46 47 46 44 43 42 41 41 41 42 44 45 42 40 43 49 54 56 56 55 57 58 61 62 58 53 55 56 55 55 58 61 64 64 62 61 58 57 59 59 54 52 57 59 60 62 65 70 72 69 70 71 69
77 75 73 72 72 78 81 81 81 79 80 82 86 90 87 85 85 80 78 79 78 78 78 75 70 69 72 71 68 67 63 54 50 46 43 45 45 43 43 44 45 46 44 44 47 48 46 45 44 43 42 42 43 44 43 41 40 42 49 54 56 57 56 55 56 57 61 63 58 54 57 60 59 58 59 60 61 61 59 58 56 54 55 56 55 53 55 58 60 61 62 67 71 68 68 69 67
76 74 73 73 73 79 83 81 79 79 82 85 89 90 88 86 84 81 79 79 78 77 75 72 70 70 71 71 70 68 61 53 49 45 43 45 44 43 42 43 43 42 41 44 49 50 49 47 45 44 44 45 44 41 38 38 43 49 53 55 57 58 58 55 54 56 60 62 55 53 57 60 60 60 60 59 59 60 58 56 54 52 52 53 55 53 54 57 60 62 60 62 65 66 65 64 64
74 72 73 74 74 79 82 81 79 82 87 89 91 90 87 85 84 82 80 78 76 76 74 72 70 70 70 71 70 66 60 54 49 42 42 44 43 42 41 42 41 39 39 44 50 52 51 49 47 46 47 47 43 37 37 43 49 52 53 55 57 57 57 55 53 55 59 59 53 53 57 58 57 59 61 59 58 59 57 54 52 51 51 52 52 52 55 58 60 61 59 59 62 64 64 65 66
75 73 73 74 73 76 80 80 79 86 92 91 91 89 85 84 83 82 81 78 76 76 75 73 71 69 69 69 68 64 59 55 48 41 41 41 40 39 40 41 40 38 38 44 51 52 51 51 49 49 48 46 42 37 40 48 51 52 54 56 56 55 54 53 52 53 57 57 52 53 56 57 58 60 61 58 57 58 56 53 50 50 50 49 50 52 55 58 60 60 59 60 63 63 62 65 68
77 75 73 73 72 73 78 81 79 85 93 92 90 88 86 85 84 82 80 78 77 77 76 75 72 69 69 68 65 61 57 52 47 42 40 39 38 38 39 39 37 36 40 45 49 49 51 51 49 49 47 44 44 41 44 50 51 53 55 56 54 52 51 50 51 52 55 56 53 55 56 57 58 59 58 56 56 57 55 51 49 50 48 46 50 53 54 57 57 57 58 60 62 61 61 63 66
78 77 74 72 70 70 76 80 79 84 91 90 86 86 87 87 85 82 79 79 78 78 77 74 71 69 68 67 64 60 56 50 46 42 39 39 39 38 38 38 36 37 42 45 46 47 49 49 47 48 45 45 46 43 47 50 50 53 55 53 51 49 48 48 51 53 56 57 56 57 57 57 57 57 56 56 56 55 53 50 48 47 46 48 51 52 54 56 55 54 52 52 53 54 56 59 60
79 79 77 74 71 70 74 78 80 83 87 84 84 85 86 86 86 83 81 81 78 76 75 72 70 68 67 68 65 60 55 49 45 40 39 39 38 38 37 37 37 38 42 44 45 45 44 44 43 44 45 47 45 43 47 49 49 53 53 50 49 48 47 49 53 55 56 56 57 58 56 57 57 56 56 55 54 53 51 49 47 44 45 50 53 54 55 55 55 53 49 47 45 45 49 51 52
79 79 77 75 73 72 74 78 81 82 83 81 82 84 83 83 85 84 82 82 78 76 74 70 68 67 66 67 66 61 54 48 43 39 38 38 37 37 36 36 36 37 41 43 45 43 40 41 41 44 47 46 43 43 47 48 50 52 50 49 48 47 48 51 54 55 55 55 55 55 53 54 55 54 54 54 54 52 50 48 45 43 47 52 55 56 56 56 56 53 48 47 46 43 44 45 45
78 77 74 73 71 72 75 79 82 81 82 82 82 83 83 82 83 84 83 81 80 77 74 70 68 66 64 64 65 62 55 47 42 38 38 38 38 35 34 34 33 34 37 39 42 40 39 41 43 46 47 44 44 45 47 49 51 50 48 48 47 50 52 54 55 55 55 54 52 51 48 49 52 52 50 51 52 50 49 47 45 43 46 51 56 57 58 58 56 52 48 46 44 42 39 37 37
74 75 72 71 69 70 74 79 83 82 82 83 83 84 85 85 84 84 82 80 80 78 72 68 67 66 63 61 63 62 56 48 43 40 38 38 37 35 33 33 32 32 34 36 39 39 39 41 43 45 45 45 45 46 47 51 51 48 47 47 48 51 54 56 55 55 54 52 49 47 46 47 50 50 49 49 48 49 50 50 48 45 46 49 54 58 59 58 55 51 49 45 41 38 35 32 31
72 73 71 69 68 68 72 79 84 84 83 82 84 86 87 87 86 85 82 80 79 77 72 67 66 66 62 60 59 59 57 50 44 41 39 37 35 34 32 33 34 33 33 35 38 38 40 41 43 44 44 46 46 45 48 51 50 47 46 47 49 53 54 54 54 53 52 50 48 47 47 47 50 50 49 48 48 50 52 51 50 50 49 49 53 58 59 56 53 51 49 45 41 38 36 33 30
74 72 70 67 66 67 69 75 82 85 84 84 86 87 88 88 87 86 84 82 79 76 73 69 69 68 63 59 57 57 57 51 46 43 40 37 34 33 32 33 33 32 32 35 37 38 39 40 42 44 44 45 44 44 48 50 48 46 47 48 51 53 53 52 52 51 52 50 48 48 48 48 49 49 47 46 47 50 51 50 49 51 51 50 53 57 58 57 54 51 49 46 43 41 39 37 34
74 71 67 65 65 66 67 71 80 84 84 85 86 85 88 88 85 84 81 80 80 76 74 71 70 70 66 62 57 56 58 53 48 45 42 38 32 30 30 32 34 33 33 35 36 36 36 38 41 42 42 43 44 45 47 48 47 46 48 49 50 51 52 51 51 50 49 48 47 47 47 46 47 46 45 46 47 48 48 46 46 47 49 51 54 56 57 57 55 52 50 48 44 42 41 39 37
71 68 65 63 62 65 68 70 76 81 84 84 84 85 88 86 82 81 78 79 82 77 75 73 69 70 70 66 60 57 59 56 51 46 42 37 30 27 27 30 33 33 33 34 33 31 33 37 40 40 41 43 45 46 48 47 46 46 46 47 48 49 49 48 48 48 46 45 45 45 45 44 44 43 44 45 46 46 43 42 42 44 47 50 53 54 55 55 55 54 53 50 46 42 41 40 38
67 66 63 61 60 63 67 71 74 77 82 84 84 86 86 85 83 81 79 80 82 78 76 74 71 71 71 69 64 60 61 59 53 47 41 35 29 26 26 29 32 34 33 31 29 29 32 37 39 39 40 43 45 47 48 47 45 45 45 45 47 46 45 44 44 44 44 44 43 43 43 43 42 42 41 41 42 41 40 40 41 44 47 50 52 52 53 54 55 55 54 51 47 42 40 40 39
62 64 62 59 58 60 64 68 72 74 79 84 84 84 84 86 86 84 82 83 81 79 78 75 73 73 72 70 66 62 62 60 54 47 42 35 31 28 28 30 31 32 29 25 26 29 32 35 36 38 40 43 45 47 48 47 45 44 45 45 44 42 40 38 39 41 42 43 42 41 41 41 41 40 39 39 39 39 39 38 40 44 47 50 51 52 52 52 53 53 52 51 48 43 40 40 39
55 59 60 57 56 57 59 64 70 72 77 83 82 82 85 88 88 86 87 86 82 80 79 76 75 74 72 71 68 64 62 60 55 48 43 39 34 29 29 30 29 28 25 22 26 32 32 31 34 36 38 41 44 48 49 46 45 46 46 44 41 38 36 36 38 40 41 43 42 41 40 39 39 39 37 38 40 41 39 38 40 43 46 49 50 51 51 50 51 51 52 51 49 46 43 41 40
50 55 56 55 53 53 57 63 68 71 77 81 80 81 86 86 84 86 89 88 84 81 80 79 77 75 72 71 69 65 63 62 56 50 45 41 36 30 29 30 28 25 22 23 29 34 32 30 33 35 36 39 44 49 49 47 47 47 44 39 36 36 36 38 40 40 40 42 43 41 39 38 38 37 37 38 40 41 39 39 41 43 46 48 49 49 50 50 50 51 51 51 50 48 46 44 43
47 50 52 52 53 55 57 63 67 69 76 81 79 82 85 85 83 84 88 87 84 82 81 81 79 76 74 71 68 65 63 61 57 53 47 41 37 32 30 29 26 21 19 25 32 34 33 32 33 34 34 37 43 49 49 48 47 45 41 37 35 36 37 40 41 40 39 42 43 41 39 38 38 38 38 39 39 38 39 40 41 44 46 47 47 48 48 49 51 52 52 51 50 49 47 46 45
45 49 52 53 55 58 58 63 67 67 73 80 80 81 80 80 81 83 87 87 84 82 80 80 78 77 76 72 69 66 62 58 57 54 47 41 37 34 32 29 25 20 18 25 32 34 33 33 33 34 34 36 42 47 48 48 46 44 42 40 38 38 40 41 42 41 40 41 41 39 39 40 40 39 39 39 38 37 38 40 42 44 45 45 46 46 46 46 47 50 51 51 51 49 47 45 44
45 48 53 55 54 57 59 64 70 69 74 80 79 78 74 73 77 83 88 86 83 80 78 77 77 77 76 72 69 67 63 60 58 54 48 42 38 36 34 29 26 22 20 25 31 34 34 33 33 34 34 35 40 46 48 47 45 44 43 42 41 42 43 43 43 43 43 43 41 41 42 42 42 41 40 40 39 39 40 40 41 42 44 45 46 46 46 45 44 46 47 49 49 49 48 46 44
45 48 53 56 52 55 59 65 71 72 77 80 78 76 71 70 74 82 88 86 82 79 77 77 76 77 77 72 68 67 65 63 61 56 51 46 39 37 36 31 27 24 24 27 30 34 35 33 33 34 34 34 39 45 49 47 44 44 43 42 42 44 46 46 44 44 45 46 45 45 44 44 43 42 42 42 42 43 43 42 41 42 44 46 46 46 46 46 45 45 45 46 46 47 47 46 45
45 48 52 54 53 54 57 64 70 73 77 79 77 76 71 69 73 80 85 85 82 78 76 76 74 76 77 72 67 66 67 66 63 58 54 50 42 38 36 32 28 25 27 30 31 35 36 33 33 35 33 33 38 43 48 48 45 44 43 42 42 44 46 47 46 46 47 47 47 46 45 45 44 43 43 44 45 46 46 44 43 43 43 45 46 47 48 46 45 44 45 46 46 46 46 46 45
44 47 50 52 53 52 55 63 69 71 76 77 75 74 71 70 74 79 82 82 81 79 76 74 73 75 76 73 68 66 67 66 63 59 54 52 46 39 35 33 30 27 28 31 32 34 37 35 34 35 33 32 36 41 45 48 47 45 43 42 43 45 46 47 46 46 46 47 46 46 46 47 47 46 45 46 47 48 47 47 46 45 44 44 45 46 47 46 45 45 44 44 46 47 46 45 45
44 46 48 48 50 51 53 61 66 68 73 75 74 72 70 71 74 78 80 79 78 77 74 73 73 75 74 73 71 68 67 65 64 60 55 53 50 42 35 31 29 28 29 31 32 33 35 37 36 35 33 31 35 40 43 46 48 46 44 44 45 46 47 48 47 47 47 47 47 48 47 48 48 47 46 47 49 49 49 48 47 46 45 45 44 44 45 45 46 47 45 42 43 46 47 45 43
42 44 46 44 47 51 51 57 65 66 69 72 73 70 68 70 74 76 78 77 75 73 72 72 74 75 74 73 73 72 70 67 66 63 56 53 51 45 37 31 28 28 30 31 31 32 34 38 38 35 33 31 33 38 42 45 48 48 47 47 48 48 49 48 47 46 47 48 49 49 49 49 48 47 47 48 50 50 50 49 47 46 46 45 44 44 44 44 46 48 47 44 43 45 47 45 43
38 41 42 41 44 47 46 50 58 61 65 68 67 62 59 63 68 71 74 75 74 72 72 73 74 75 75 73 73 73 72 70 69 66 59 54 52 47 41 35 30 27 29 31 30 30 33 37 39 36 33 31 31 36 41 44 46 49 49 49 50 50 50 50 48 47 47 49 49 49 49 49 47 47 49 49 50 50 49 49 48 47 46 45 44 43 44 45 45 47 48 47 46 46 45 44 45
35 37 39 40 41 44 41 42 48 54 58 58 57 56 54 55 59 64 70 72 72 72 73 74 74 74 75 74 72 72 72 72 71 69 63 57 53 49 44 39 35 30 29 30 31 30 31 35 38 37 33 31 29 32 39 43 44 47 48 50 51 50 49 50 50 49 49 49 49 49 49 49 47 48 50 50 49 49 48 47 47 47 47 46 44 43 43 43 44 45 47 48 48 46 43 44 45
32 35 37 39 40 42 39 36 41 48 51 50 52 53 51 51 52 56 62 65 65 66 68 70 72 73 73 74 72 70 71 72 73 72 67 60 55 51 46 42 39 35 31 29 31 31 31 32 36 37 33 31 30 29 34 39 42 45 46 48 49 48 47 48 49 49 49 49 49 49 50 49 48 48 50 51 50 50 49 47 46 46 46 46 45 43 42 43 44 45 46 48 49 47 44 44 44
32 33 36 40 41 41 39 35 37 44 44 43 47 47 44 45 47 50 53 55 57 60 63 65 68 70 71 72 70 69 70 73 74 73 70 64 58 52 48 44 40 39 36 32 31 31 31 31 34 36 33 31 30 29 30 34 38 42 43 44 46 47 45 45 47 47 48 47 46 48 49 48 48 48 50 51 51 51 51 50 48 46 46 46 46 45 44 45 46 46 48 50 50 49 47 45 44
31 33 34 38 40 41 40 36 35 39 40 38 41 41 38 39 42 45 48 50 52 56 59 60 63 67 69 71 71 70 70 71 72 72 70 65 59 54 50 47 43 40 39 37 33 31 30 31 32 34 33 30 29 28 28 31 35 40 42 42 44 46 44 43 45 46 46 46 44 45 47 47 48 49 49 50 51 52 52 51 49 48 47 48 48 47 47 46 46 47 48 50 52 53 52 48 45
30 31 32 35 38 40 40 36 34 36 37 37 38 37 37 40 41 41 44 47 48 51 53 54 57 62 67 70 72 73 72 70 70 71 69 64 60 56 52 49 46 41 40 38 36 32 29 30 31 32 33 31 29 28 28 30 34 38 41 42 42 44 43 42 43 44 44 43 41 43 45 47 49 48 49 51 52 52 51 49 49 49 49 49 49 49 48 47 47 47 47 49 51 54 54 50 47
29 30 30 31 35 38 39 37 34 34 35 36 35 35 36 40 42 41 42 44 45 46 47 49 52 57 64 69 72 74 74 71 70 70 68 64 60 57 53 51 48 44 41 39 38 36 31 29 30 32 32 31 29 28 29 30 32 36 39 41 41 41 42 41 39 39 40 39 38 40 42 46 49 47 48 52 53 52 52 50 48 49 50 51 51 50 49 49 49 48 47 47 48 51 53 50 48
30 28 27 29 31 33 36 37 36 34 34 34 34 33 33 34 35 38 40 44 45 44 44 46 49 53 60 66 70 71 72 73 71 70 69 65 60 57 54 52 50 47 44 41 39 38 35 30 29 31 31 31 29 28 29 30 32 34 36 39 40 40 40 40 38 36 36 35 35 38 38 42 48 47 47 51 52 51 52 51 50 49 50 51 51 49 50 51 52 50 48 46 45 46 49 49 48
30 26 25 26 26 28 31 34 35 33 31 32 33 33 35 35 33 36 40 42 44 43 44 46 48 51 56 61 66 69 69 72 71 69 69 67 62 57 55 53 51 49 46 43 41 39 37 33 30 30 30 30 30 29 29 30 31 32 33 35 38 38 39 39 38 36 35 34 34 37 37 40 47 48 48 49 48 49 51 51 51 51 51 51 51 50 51 52 53 51 50 47 44 43 45 46 46
27 24 23 23 23 25 28 29 31 31 29 30 32 33 37 38 34 36 39 43 49 51 51 51 51 52 55 58 63 66 68 71 71 69 68 68 65 60 56 54 52 50 47 45 43 41 39 35 32 30 29 30 30 29 30 29 29 30 31 32 35 36 36 37 38 37 35 33 34 38 38 41 48 48 48 47 45 47 50 51 52 53 53 53 52 52 52 51 52 52 52 50 48 46 44 44 44
25 23 22 22 23 24 25 25 25 26 27 28 30 32 33 34 35 39 45 48 54 56 55 55 56 56 57 58 61 64 68 71 71 70 68 68 66 61 58 55 52 50 48 46 45 43 41 37 34 31 29 28 29 30 30 30 28 28 28 30 31 33 34 35 37 37 37 35 34 38 39 41 46 47 46 46 44 45 48 49 51 53 53 53 52 52 50 50 49 50 51 52 52 50 47 45 43
25 24 24 24 24 25 25 24 24 25 27 25 27 31 30 31 38 45 51 53 51 50 51 52 55 58 60 61 63 66 68 71 72 71 69 69 67 63 59 56 54 51 49 47 46 45 43 39 35 33 30 27 27 29 31 30 29 27 26 27 28 30 31 33 35 35 37 37 35 37 38 39 43 44 44 45 43 43 45 45 45 47 51 52 51 51 50 49 49 47 48 50 50 49 49 48 44
27 26 26 25 25 25 24 25 25 25 25 23 25 31 30 32 41 44 46 49 48 48 48 46 46 50 54 57 62 67 70 71 72 72 70 69 68 65 60 55 54 52 49 48 47 46 44 41 36 34 32 28 26 27 30 30 29 27 26 26 26 27 28 30 32 33 35 37 37 36 36 37 40 41 41 43 44 43 44 42 39 40 45 49 51 51 51 51 49 48 47 48 48 48 49 49 46
26 27 27 26 26 25 24 25 25 25 23 21 24 31 32 37 43 41 40 46 48 47 46 43 43 44 47 50 54 60 66 69 70 71 72 70 69 68 62 56 53 53 52 49 48 46 45 43 39 35 32 30 27 26 27 29 28 27 26 25 25 26 27 28 30 31 32 34 35 35 34 35 37 39 39 40 42 42 42 40 37 36 39 43 47 48 49 50 49 48 47 47 47 49 49 49 46
24 26 27 27 26 25 26 26 25 25 22 20 23 29 33 36 40 40 40 44 47 47 45 44 44 44 45 48 50 53 57 62 66 68 70 72 72 70 65 58 53 54 54 52 49 46 45 44 41 37 34 31 29 27 27 27 26 26 26 26 25 24 25 26 27 29 30 31 32 33 34 34 35 37 38 39 39 40 39 38 36 36 36 37 41 44 45 46 47 48 47 46 47 48 49 49 46
22 23 24 26 24 23 25 24 23 24 22 21 25 28 29 32 35 38 41 44 48 50 47 45 45 45 45 46 48 51 53 56 60 62 65 70 73 73 69 61 56 55 56 55 52 47 45 44 42 39 36 32 30 28 27 26 25 25 25 25 24 24 24 24 25 27 29 30 29 29 32 33 34 36 38 38 38 37 35 34 33 35 35 35 36 39 41 42 43 45 46 45 46 49 50 50 48
22 22 23 25 24 22 24 23 22 22 21 24 27 25 25 28 31 35 40 44 50 53 50 47 45 44 45 44 46 50 53 54 56 58 60 65 70 73 71 65 61 58 57 56 54 50 46 44 42 41 38 35 32 29 28 27 26 24 24 24 23 22 22 23 24 25 27 28 28 28 28 31 33 35 37 37 36 35 33 32 32 32 33 33 33 35 37 39 40 42 44 44 46 49 51 52 51
23 24 24 25 23 23 25 24 23 22 21 23 26 24 25 26 27 32 37 42 49 52 49 46 44 43 44 44 45 49 53 55 56 56 59 63 67 71 71 68 66 64 60 58 56 53 48 44 43 42 40 37 34 31 29 29 28 25 23 22 22 21 21 21 22 23 25 27 28 27 27 28 30 33 35 35 34 33 32 32 31 31 31 31 31 32 34 37 38 40 43 44 45 47 49 50 51
23 24 24 24 23 24 26 26 25 23 21 23 27 31 33 32 32 34 36 40 47 49 46 44 44 44 43 43 45 49 52 54 56 57 60 63 65 68 70 70 69 68 64 62 60 57 52 47 44 43 41 39 36 33 31 29 29 27 24 22 22 21 20 19 20 22 23 25 26 27 27 26 27 30 32 33 32 32 31 31 31 30 30 29 30 31 32 35 37 38 40 42 44 44 45 46 47
23 24 23 24 25 26 27 27 26 25 24 27 31 35 39 45 46 43 42 43 46 45 44 43 44 45 44 44 47 50 52 53 56 58 60 63 65 67 69 70 72 71 68 66 65 61 56 50 46 44 43 42 40 37 33 31 29 28 26 24 22 21 21 19 19 20 22 23 25 26 27 26 26 26 28 30 31 31 30 30 30 29 29 29 29 30 31 33 35 36 37 38 39 40 41 43 44
24 24 23 24 26 26 27 27 26 26 27 29 31 33 40 51 54 52 49 47 44 43 43 43 43 44 43 44 49 51 52 53 55 57 59 62 65 69 71 72 72 73 72 70 68 65 61 56 50 47 45 44 42 39 36 33 30 29 28 27 25 22 21 20 19 19 20 21 23 23 25 26 25 25 26 27 28 29 30 30 30 29 28 29 29 30 30 32 33 34 35 35 35 36 36 38 39
25 25 25 25 25 25 26 26 26 27 29 30 30 34 43 51 54 54 52 48 45 47 47 44 42 41 40 43 48 52 53 53 52 52 55 58 62 66 68 70 72 72 72 72 70 69 67 62 57 52 48 45 42 40 38 35 32 31 30 29 28 26 22 20 20 19 18 19 21 22 22 24 24 24 24 24 24 25 27 28 30 30 29 28 29 30 31 31 32 33 33 33 33 33 32 33 34
25 26 26 26 26 26 27 28 28 28 29 31 31 36 45 51 52 53 52 48 46 48 50 47 42 41 39 39 44 50 54 54 52 50 50 52 56 61 64 66 69 71 71 71 71 70 69 67 64 60 55 49 45 41 39 38 35 33 31 31 31 30 26 23 21 19 18 18 18 20 21 21 22 22 23 23 22 23 24 25 26 28 29 29 28 30 31 31 32 32 31 31 31 31 31 30 31